Regional Weather Roundup
Issued by NWS

Home | Current Version | Previous Version | Text Only | Print | Product List | Glossary On
Versions: 1 2 3 4 5 6 7 8 9 10 11 12 13 14 15 16 17 18 19 20 21 22 23 24 25 26 27 28 29 30 31 32 33 34 35 36 37 38 39 40 41 42 43 44 45 46 47 48 49 50
911
ASUS44 KJAN 301703
RWRMS

MISSISSIPPI HOURLY WEATHER ROUNDUP
NATIONAL WEATHER SERVICE JACKSON MS
1200 PM CDT MON MAR 30 2015

NOTE: "FAIR: INDICATES FEW OR NO CLOUDS BELOW 12,000 FEET WITH NO
SIGNIFICANT WEATHER AND/OR OBSTRUCTIONS TO VISIBILITY.

MSZ001>002-007>008-010>013-018>021-025>028-034>036-301800-
NORTHWEST MISSISSIPPI

CITY           SKY/WX    TMP DP  RH WIND       PRES   REMARKS
CLARKSDALE     FAIR      64  52  63 NE3       30.24F
CLEVELAND      FAIR      68  49  50 NE6       30.22F
GREENWOOD      SUNNY     71  44  37 MISG      30.21F
GREENVILLE       N/A    N/A N/A N/A MISG      30.22F
OLIVE BRANCH   MOSUNNY   63  43  48 NE9       30.23F
OXFORD         FAIR      64  45  48 NW3       30.24F
TUNICA         SUNNY     64  48  55 CALM      30.25S
$$

MSZ003>006-009-014>017-022>024-029>033-037>039-301800-
NORTHEAST MISSISSIPPI

CITY           SKY/WX    TMP DP  RH WIND       PRES   REMARKS
COLUMBUS AFB   SUNNY     70  47  43 VRB7      30.21F
CORINTH        FAIR      64  41  42 CALM      30.22F
GOLDN TRIANGLE MOSUNNY   70  52  52 N7        30.21F
STARKVILLE     FAIR      68  50  52 N6        30.22F
TUPELO         SUNNY     67  47  48 VRB5      30.23F
$$

MSZ040-058-301800-
CENTRAL MISSISSIPPI

CITY           SKY/WX    TMP DP  RH WIND       PRES   REMARKS
JACKSON INTL   PTSUNNY   70  62  76 W8        30.22F
JACKSON HAWKNS CLOUDY    69  63  81 W7        30.22F
MERIDIAN KEY   CLOUDY    67  62  84 W8        30.22S
MERIDIAN NAS   PTSUNNY   67  62  84 W8        30.22R
RAYMOND        PTSUNNY   70  64  83 W10       30.22F
VICKSBURG      LGT RAIN  68  63  84 CALM      30.22F
$$

MSZ059>079-301800-
SOUTH MISSISSIPPI

CITY           SKY/WX    TMP DP  RH WIND       PRES   REMARKS
BROOKHAVEN     FAIR      73  59  60 W9        30.24F
HATTIESBURG    MOSUNNY   77  59  53 W16       30.24F
MCCOMB         SUNNY     76  59  55 W9        30.23F
NATCHEZ        PTSUNNY   75  61  60 SW14      30.23F
PINE BELT      MOSUNNY   73  57  56 W7        30.24F
$$

MSZ080>082-301800-
COASTAL MISSISSIPPI

CITY           SKY/WX    TMP DP  RH WIND       PRES   REMARKS
BAY ST LOUIS   MOSUNNY   77  57  50 MISG      30.24F
BILOXI         MOSUNNY   76  65  68 SW10      30.23F
PASCAGOULA     PTSUNNY   80  60  50 VRB7      30.23F
GULFPORT       PTSUNNY   76  63  64 S9        30.23F
$$



USA.gov is the U.S. government's official web portal to all federal, state and local government web resources and services.